Weather in Piskovo

Russia / Kaluga Oblast     55˚05′05″N   36˚28′07″E
temp.,
°C
wind,
m/s
gust,
m/s
humid.,
%
clouds,
%
prec.,
mm/h
press.,
hPa
HPBL,
m
15 january, fri
fri1500:00−22˚nw229833 0.0 100822
03:00−24˚nw119835 0.0 101020
06:00−24˚wnw019967 0.0 101120
09:00−23˚ne009874 0.0 101220
12:00−19˚ne1293100 0.0 1012140
15:00−17˚ne239592 0.0 1012175
18:00−18˚ene2397100 0.0 101284
21:00−19˚ne2397100 0.1 101281
16 january, sat
sat1600:00−18˚ne2596100 0.1 1011209
03:00−20˚n2697100 0.1 1011140
06:00−20˚nnw3696100 0.0 1009181
09:00−19˚nnw3796100 0.0 1009234
12:00−17˚nw4796100 0.3 1009285
15:00−17˚nw4996100 1.1 1009370
18:00−17˚nw4996100 0.9 1009425
21:00−16˚nw4996100 2.1 1010505
17 january, sun
sun1700:00−17˚nw4896100 1.3 1011520
03:00−18˚nnw3794100 2.0 1012456
06:00−20˚nnw3796100 0.0 1013290
09:00−23˚nw2397100 0.0 101547
12:00−22˚nnw249594 0.0 1017231
15:00−21˚nnw249672 0.0 1017214
18:00−24˚nnw23978 0.0 101933
21:00−26˚nne129933 0.0 102120
18 january, mon
mon1800:00−26˚nne229980 0.0 102119
03:00−26˚n0110079 0.0 102119
06:00−26˚nnw1110050 0.0 102119
09:00−25˚wnw009875 0.0 102320
12:00−20˚w019439 0.0 102397
15:00−19˚w019540 0.0 102222
18:00−23˚nw01951 0.0 102320
21:00−24˚wnw119725 0.0 102320
19 january, tue
tue1900:00−23˚wnw1110091 0.0 102320
03:00−23˚wnw119993 0.0 102420
06:00−21˚nnw1299100 0.0 102320
09:00−21˚nw1199100 0.0 102420
12:00−16˚nw1195100 0.0 1024126
15:00−16˚nw1297100 0.1 1023101
18:00−18˚nw1298100 0.0 102420
21:00−19˚nw1199100 0.0 102520